STARLINK-33767, 63722

Orbit data source: Space-Track

STARLINK-33767, 63722 is a payload satellite owned by SpaceX/Seattle (US) in LEO that was launched on Mon, 28 Apr 2025 UTC via an FALCON 9 launch vehicle from the Air Force Western Test Range (AFWTR). Payload-class satellites include a variety of spacecraft equipped with specific instruments for various scientific and technological missions. These include communications satellites like Starlink; space stations such as the ISS; scientific satellites like the Hubble; Earth observation satellites from companies like Planet Labs, Umbra, and HawkEye 360; GPS; miniature CubeSats for education and research; and military/defense satellites.

Loading next visibility...
Identifier
63722, 2025-087AB
Orbit
LEO
Country
Flag of USUS
Related business
Manufacturer
SpaceX/Seattle
Mission
Operational Commercial Communications
Bus & Motor
STARLINK V2MO, Unknown motor
Mass
575 kg wet, ~530 kg dry
Launch date (UTC)
2025-04-28 (1 year ago)
Launch vehicle
FALCON 9
Launch site
Air Force Western Test Range (AFWTR)
Object type
Payload
Rocket body
Debris
Shape & HBR
Box + 2 Pan, 17.7 m
Radar Cross Section
36.964 m², Large (>1 m²)

Expand to show TLE details & history
Last TLE update: 19 hours ago

TLE from 19 hours ago
0 STARLINK-33767
1 63722U 25087AB  26171.18374612  .00012472  00000-0  43230-3 0  9992
2 63722  53.1585 103.3536 0001297  97.4291 262.6857 15.30215278 64898
Epoch: 2026-06-20T04:24Z
TLE epoch observation values (Epoch: 2026-06-20T04:24:35.664Z)
Latitude
-0.00005°
Longitude
128.80294°
Altitude
476.182 km
Speed
7.629 km/s
True Right ascension
06h 53m 24s
True Declination
0° 00' 00"
Sunlit
Object was in daylight at epoch
Visualization orbit readout
Latitude
Unknown
Longitude
Unknown
Altitude
Unknown
Speed
Unknown
Apparent Right ascension
Unknown
Apparent Declination
Unknown
Sunlit
N/A
Visualization observer readout
Local Sidereal Time
10:18:53
Azimuth
Unknown
Elevation
Unknown
Doppler factor
Unknown
Orbital elements
Apogee altitude
476.315 km
Perigee altitude
474.537 km
Semi-major axis
6,853.563 km
Eccentricity
0.00013
Inclination
53.1585°
RAAN
103.3536°
Arg. of periapsis
97.4291°
True anomaly
262.67096°
Mean anomaly
262.6857°
Eccentric anomaly
262.67833°
Mean motion
3.82533 °/min
Orbital period
94.11 mins
BSTAR
0.0004323
Loading maneuver chart data...
Computing Atmospheric mass density...
Loading historical data...
Loading historical data...
Loading historical data...
Loading historical data...
Loading historical data...
Loading historical data...
Loading historical data...

Documentation

Showing up to 5 results
|